Location: Poughquag
(41.6090°N, 73.6820°W)
Time: 01:42:45
(UTC-04:00)

S-56A Canister/Altair - Pass Details

Date: 06 June 2020
Orbit: 633 x 2499 km, 38.9° (Epoch: 06 July)

Event Time Altitude Azimuth Distance (km) Brightness Sun altitude
Rises 06:01:17 0° 267° (W) 3,229 10.1 5.8°
Reaches altitude 10° 06:03:24 10° 265° (W) 2,439 9.5 6.1°
Maximum altitude 06:09:05 72° 181° (S) 1,113 8.4 7.1°
Drops below altitude 10° 06:17:42 10° 100° (E) 3,614 12.1 8.6°
Sets 06:21:27 0° 99° (E) 4,906 12.8 9.2°
